Date Time,Air Temp,Sky Temp,Clarity,Light Level,Rain Sensor,Readings
2010-10-29 00:00:25,23.5,3.1,20.4,0.0,2.3,112
2010-10-29 00:05:25,20.8,6.3,14.6,0.0,2.4,111
2010-10-29 00:10:25,19.7,4.9,14.8,0.0,2.3,111
2010-10-29 00:15:25,19.3,3.3,16.1,0.0,2.3,111
2010-10-29 00:20:25,19.2,1.3,17.9,0.0,2.3,112
2010-10-29 00:25:25,19.1,2.3,16.8,0.0,2.4,111
2010-10-29 00:30:25,19.2,2.0,17.1,0.0,2.4,111
2010-10-29 00:35:25,19.1,3.7,15.4,0.0,2.4,112
2010-10-29 00:40:25,20.8,-0.7,21.5,0.0,2.3,111
2010-10-29 00:45:25,22.6,-5.4,28.0,0.0,2.5,112
2010-10-29 00:50:25,21.7,5.9,15.9,0.0,2.4,111
2010-10-29 00:55:25,19.7,7.3,12.4,0.0,2.3,111
2010-10-29 01:00:25,19.3,3.5,15.7,0.0,2.4,112
2010-10-29 01:05:25,19.0,6.7,12.4,0.0,2.4,111
2010-10-29 01:10:25,18.9,7.8,11.1,0.0,2.4,112
2010-10-29 01:15:25,18.9,8.1,10.8,0.0,2.6,111
2010-10-29 01:20:25,18.9,7.8,11.1,0.0,2.6,112
2010-10-29 01:25:25,18.9,8.1,10.7,0.0,2.6,111
2010-10-29 01:30:25,18.9,8.0,10.9,0.0,2.6,112
2010-10-29 01:35:25,18.9,8.2,10.7,0.0,2.7,112
2010-10-29 01:40:25,18.9,7.4,11.5,0.0,2.7,111
2010-10-29 01:45:25,18.9,3.6,15.3,0.0,2.7,112
2010-10-29 01:50:25,18.9,5.6,13.3,0.0,2.7,111
2010-10-29 01:55:25,18.8,5.8,13.0,0.0,2.7,112
2010-10-29 02:00:25,18.8,2.1,16.7,0.1,2.7,111
2010-10-29 02:05:25,21.0,-8.0,28.9,0.0,2.3,112
2010-10-29 02:10:25,22.4,-3.5,25.9,0.0,2.3,112
2010-10-29 02:15:25,22.8,-1.0,23.8,0.0,2.6,111
2010-10-29 02:20:25,22.2,2.1,20.1,0.1,2.4,112
2010-10-29 02:25:25,20.4,1.2,19.2,0.1,2.3,111
2010-10-29 02:30:25,20.8,2.4,18.4,0.1,2.3,112
2010-10-29 02:35:25,19.5,6.9,12.6,0.1,2.3,111
2010-10-29 02:40:25,18.9,5.8,13.1,0.1,2.5,112
2010-10-29 02:45:25,18.8,4.8,13.9,0.1,2.6,111
2010-10-29 02:50:25,18.8,2.4,16.4,0.1,2.7,112
2010-10-29 02:55:25,20.8,-3.5,24.3,0.1,2.4,112
2010-10-29 03:00:25,22.4,-0.2,22.7,0.1,2.4,111
2010-10-29 03:05:25,20.7,4.8,16.0,0.1,2.3,112
2010-10-29 03:10:25,19.2,6.5,12.7,0.1,2.4,111
2010-10-29 03:15:25,18.8,6.6,12.2,0.1,2.4,112
2010-10-29 03:20:25,18.7,7.2,11.5,0.1,2.4,111
2010-10-29 03:25:25,18.7,7.6,11.1,0.0,2.5,111
2010-10-29 03:30:25,18.6,7.6,11.0,0.0,2.7,112
2010-10-29 03:35:25,18.6,7.7,10.9,0.0,2.7,111
2010-10-29 03:40:25,18.6,7.9,10.7,0.0,2.7,111
2010-10-29 03:45:25,18.6,7.9,10.7,0.0,2.7,112
2010-10-29 03:50:25,18.6,7.7,10.9,0.0,2.7,111
2010-10-29 03:55:25,18.6,7.6,11.0,0.0,2.7,112
2010-10-29 04:00:25,18.6,7.4,11.2,0.1,2.6,111
2010-10-29 04:05:25,18.6,7.9,10.7,0.0,2.6,112
2010-10-29 04:10:25,18.6,8.1,10.5,0.0,2.7,112
2010-10-29 04:15:25,18.6,8.0,10.6,0.0,2.7,111
2010-10-29 04:20:25,18.6,7.9,10.8,0.0,2.7,112
2010-10-29 04:25:25,18.7,8.0,10.6,0.0,2.7,112
2010-10-29 04:30:25,18.7,7.7,11.0,0.0,2.6,111
2010-10-29 04:35:25,18.7,8.3,10.3,0.0,2.6,112
2010-10-29 04:40:25,18.7,8.5,10.2,0.0,2.7,111
2010-10-29 04:45:25,18.7,7.6,11.2,0.1,2.7,112
2010-10-29 04:50:25,18.7,7.9,10.8,0.1,2.7,111
2010-10-29 04:55:25,18.7,7.7,11.0,0.0,2.7,112
2010-10-29 05:00:25,18.7,7.5,11.2,0.1,2.7,111
2010-10-29 05:05:25,18.7,6.5,12.2,0.1,2.7,112
2010-10-29 05:10:25,18.7,7.3,11.4,0.1,2.7,111
2010-10-29 05:15:25,18.6,7.2,11.5,0.1,2.7,111
2010-10-29 05:20:25,18.6,6.9,11.8,0.1,2.7,112
2010-10-29 05:25:25,18.7,7.6,11.1,0.1,2.7,111
2010-10-29 05:30:25,18.7,7.0,11.7,0.1,2.7,112
2010-10-29 05:35:25,18.7,6.1,12.6,0.1,2.7,111
2010-10-29 05:40:25,18.6,6.9,11.8,0.1,2.7,111
2010-10-29 05:45:25,18.7,8.0,10.7,0.0,2.7,112
2010-10-29 05:50:25,18.7,8.3,10.4,0.0,2.7,111
2010-10-29 05:55:25,18.7,8.2,10.6,0.0,2.7,112
2010-10-29 06:00:25,18.8,7.7,11.1,0.1,2.7,111
2010-10-29 06:05:25,18.8,6.3,12.5,0.1,2.7,112
2010-10-29 06:10:25,18.8,7.0,11.8,0.1,2.7,111
2010-10-29 06:15:25,18.8,5.1,13.7,0.1,2.7,112
2010-10-29 06:20:25,18.8,7.6,11.2,0.1,2.7,112
2010-10-29 06:25:25,18.9,8.2,10.7,0.0,2.7,111
2010-10-29 06:30:25,18.9,8.3,10.6,0.0,2.7,111
2010-10-29 06:35:25,18.9,8.0,10.8,0.0,2.6,112
2010-10-29 06:40:25,18.8,8.0,10.9,0.0,2.7,111
2010-10-29 06:45:25,18.8,8.2,10.6,0.0,2.7,112
2010-10-29 06:50:25,18.8,7.6,11.2,0.0,2.7,111
2010-10-29 06:55:25,18.8,8.0,10.7,0.1,2.7,111
2010-10-29 07:00:25,18.8,8.4,10.3,0.1,2.7,112
2010-10-29 07:05:25,18.8,8.1,10.7,0.3,2.7,111
2010-10-29 07:10:25,18.8,7.7,11.1,0.9,2.6,112
2010-10-29 07:15:25,18.7,7.4,11.3,1.9,2.7,111
2010-10-29 07:20:25,18.4,7.3,11.0,3.9,2.6,111
2010-10-29 07:25:25,18.7,7.6,11.1,6.6,2.6,112
2010-10-29 07:30:25,18.8,8.4,10.4,10.0,2.7,111
2010-10-29 07:35:25,18.8,8.4,10.4,15.4,2.7,112
2010-10-29 07:40:25,18.9,8.1,10.7,19.4,2.6,111
2010-10-29 07:45:25,18.9,8.1,10.8,22.0,2.7,112
2010-10-29 07:50:25,18.9,8.3,10.6,26.0,2.7,111
2010-10-29 07:55:25,19.0,8.9,10.2,25.4,2.7,111
2010-10-29 08:00:25,19.0,8.8,10.3,25.1,2.7,112
2010-10-29 08:05:25,19.1,8.5,10.5,26.5,2.6,111
2010-10-29 08:10:25,19.1,8.2,10.9,28.3,2.6,112
2010-10-29 08:15:25,19.1,8.2,10.9,29.5,2.7,111
2010-10-29 08:20:25,19.1,8.2,10.8,29.9,2.7,111
2010-10-29 08:25:25,19.0,8.1,10.9,30.2,2.7,112
2010-10-29 08:30:25,19.0,8.1,10.9,30.9,2.7,111
2010-10-29 08:35:25,18.9,8.0,11.0,31.1,2.7,111
2010-10-29 08:40:25,18.9,8.0,10.9,31.1,2.7,112
2010-10-29 08:45:25,18.9,8.3,10.6,31.4,2.7,111
2010-10-29 08:50:25,19.0,8.6,10.4,31.5,2.7,112
2010-10-29 08:55:25,19.1,8.6,10.5,31.6,2.7,111
2010-10-29 09:00:25,19.1,8.7,10.4,31.7,2.7,111
2010-10-29 09:05:25,19.1,8.5,10.6,31.9,2.7,111
2010-10-29 09:10:25,19.1,8.7,10.4,32.0,2.7,112
2010-10-29 09:15:25,19.1,8.7,10.4,32.0,2.7,111
2010-10-29 09:20:25,19.2,8.8,10.5,32.1,2.7,112
2010-10-29 09:25:25,19.3,8.7,10.6,32.2,2.7,111
2010-10-29 09:30:25,19.4,8.5,10.9,32.3,2.7,112
2010-10-29 09:35:25,19.4,8.4,11.0,32.2,2.7,111
2010-10-29 09:40:25,19.0,8.5,10.5,32.2,2.7,112
2010-10-29 09:45:25,19.5,8.7,10.8,32.2,2.7,112
2010-10-29 09:50:25,19.5,8.1,11.4,32.3,2.7,111
2010-10-29 09:55:25,19.5,8.1,11.4,32.2,2.7,111
2010-10-29 10:00:25,19.5,8.2,11.3,32.3,2.7,112
2010-10-29 10:05:25,19.5,7.5,12.1,32.4,2.7,111
2010-10-29 10:10:25,19.6,8.1,11.5,32.3,2.7,111
2010-10-29 10:15:25,19.5,7.8,11.7,32.3,2.7,112
2010-10-29 10:20:25,19.5,7.2,12.3,32.4,2.7,111
2010-10-29 10:25:25,19.5,7.9,11.6,32.3,2.7,112
2010-10-29 10:30:25,19.5,8.3,11.3,32.3,2.7,111
2010-10-29 10:35:25,19.6,8.3,11.3,32.3,2.7,111
2010-10-29 10:40:25,19.6,8.0,11.6,32.4,2.7,112
2010-10-29 10:45:25,19.6,8.2,11.4,32.4,2.7,112
2010-10-29 10:50:25,19.7,8.1,11.6,32.3,2.7,111
2010-10-29 10:55:25,19.8,8.5,11.3,32.3,2.7,111
2010-10-29 11:00:25,19.8,8.3,11.5,32.3,2.7,111
2010-10-29 11:05:25,19.8,7.8,12.1,32.3,2.7,112
2010-10-29 11:10:25,19.9,6.9,13.0,32.3,2.7,111
2010-10-29 11:15:25,19.8,7.4,12.4,32.3,2.7,111
2010-10-29 11:20:25,19.8,7.5,12.3,32.4,2.7,112
2010-10-29 11:25:25,19.8,8.0,11.8,32.4,2.7,111
2010-10-29 11:30:25,19.5,8.5,11.0,32.3,2.7,112
2010-10-29 11:35:25,19.8,8.8,11.0,32.3,2.7,112
2010-10-29 11:40:25,19.8,8.8,11.0,32.4,2.7,111
2010-10-29 11:45:25,19.8,8.8,11.0,32.4,2.7,111
2010-10-29 11:50:25,20.0,8.7,11.3,32.4,2.7,112
2010-10-29 11:55:25,20.1,8.6,11.5,32.4,2.7,111
2010-10-29 12:00:25,20.3,8.0,12.3,32.4,2.6,112
2010-10-29 12:05:25,20.3,6.7,13.6,32.5,2.5,111
2010-10-29 12:10:25,20.4,5.4,15.0,32.5,2.5,112
2010-10-29 12:15:25,20.5,2.4,18.1,32.5,2.5,111
2010-10-29 12:20:25,20.7,1.6,19.0,32.5,2.4,111
2010-10-29 12:25:25,21.1,2.0,19.1,32.5,2.4,111
2010-10-29 12:30:25,21.8,2.5,19.4,32.5,2.6,111
2010-10-29 12:35:25,21.1,3.1,18.0,32.5,2.7,111
2010-10-29 12:40:25,21.0,1.6,19.4,32.5,2.7,111
2010-10-29 12:45:25,23.2,0.9,22.3,32.5,2.4,112
2010-10-29 12:50:25,24.8,1.5,23.3,32.5,2.6,111
2010-10-29 12:55:25,25.3,1.2,24.1,32.5,2.3,111
2010-10-29 13:00:25,25.5,0.9,24.6,32.5,2.3,111
2010-10-29 13:05:25,25.6,1.4,24.2,32.5,2.5,111
2010-10-29 13:10:25,25.7,1.7,24.0,32.5,2.6,111
2010-10-29 13:15:25,25.7,1.7,23.9,32.5,2.5,111
2010-10-29 13:20:25,25.7,1.3,24.4,32.5,2.5,111
2010-10-29 13:25:25,25.7,1.4,24.3,32.5,2.4,111
2010-10-29 13:30:26,25.7,1.1,24.6,32.5,2.4,111
2010-10-29 13:35:26,25.8,2.0,23.8,32.5,2.4,111
2010-10-29 13:40:26,25.8,1.9,23.9,32.5,2.3,112
2010-10-29 13:45:26,25.6,2.1,23.6,32.5,2.4,111
2010-10-29 13:50:26,25.6,1.6,23.9,32.5,2.3,111
2010-10-29 13:55:26,25.0,1.9,23.1,32.5,2.3,111
2010-10-29 14:00:26,25.4,2.0,23.3,32.5,2.5,111
2010-10-29 14:05:26,25.3,2.5,22.9,32.5,2.6,110
2010-10-29 14:10:26,25.4,2.5,22.8,32.4,2.6,111
2010-10-29 14:15:26,25.3,2.8,22.5,32.4,2.5,111
2010-10-29 14:20:26,25.3,2.9,22.4,32.4,2.5,111
2010-10-29 14:25:26,25.2,2.6,22.6,32.4,2.4,112
2010-10-29 14:30:26,25.2,2.6,22.6,32.4,2.4,110
2010-10-29 14:35:26,25.2,2.6,22.5,32.4,2.4,112
2010-10-29 14:40:26,25.1,2.8,22.3,32.4,2.3,111
2010-10-29 14:45:26,25.0,3.0,22.1,32.4,2.3,111
2010-10-29 14:50:26,25.0,2.6,22.4,32.4,2.3,112
2010-10-29 14:55:26,25.1,3.0,22.1,32.4,2.3,111
2010-10-29 15:00:26,25.4,2.8,22.6,32.4,2.4,111
2010-10-29 15:05:26,25.1,2.5,22.6,32.4,2.4,111
2010-10-29 15:10:26,25.2,2.8,22.3,32.4,2.4,111
2010-10-29 15:15:26,25.1,2.9,22.3,32.4,2.4,111
2010-10-29 15:20:26,25.1,2.9,22.2,32.4,2.4,112
2010-10-29 15:25:26,25.1,3.1,22.0,32.4,2.5,111
2010-10-29 15:30:26,24.6,4.6,20.0,32.4,2.4,112
2010-10-29 15:35:26,22.1,4.2,17.9,32.4,2.5,111
2010-10-29 15:40:26,20.9,4.0,16.8,32.5,2.4,112
2010-10-29 15:45:26,20.5,3.9,16.7,32.5,2.4,111
2010-10-29 15:50:26,20.5,3.8,16.7,32.5,2.4,111
2010-10-29 15:55:26,20.5,2.7,17.8,32.5,2.5,111
2010-10-29 16:00:26,20.4,2.9,17.6,32.4,2.5,112
2010-10-29 16:05:26,20.4,7.8,12.6,32.3,2.7,111
2010-10-29 16:10:26,20.4,7.6,12.8,32.3,2.7,112
2010-10-29 16:15:26,20.3,7.7,12.6,32.2,2.7,111
2010-10-29 16:20:26,20.3,7.7,12.6,32.2,2.7,112
2010-10-29 16:25:26,20.3,7.9,12.3,32.1,2.7,111
2010-10-29 16:30:26,20.3,7.6,12.6,32.1,2.7,112
2010-10-29 16:35:26,20.3,7.8,12.5,32.1,2.6,111
2010-10-29 16:40:26,20.3,7.6,12.6,32.1,2.7,111
2010-10-29 16:45:26,20.3,7.8,12.5,32.2,2.7,111
2010-10-29 16:50:26,20.3,6.8,13.4,32.2,2.7,112
2010-10-29 16:55:26,20.2,4.7,15.5,32.3,3.3,111
2010-10-29 17:00:26,20.1,4.3,15.8,32.1,3.3,112
2010-10-29 17:05:26,19.9,4.6,15.4,32.0,5.1,111
2010-10-29 17:10:26,19.8,5.2,14.6,31.8,5.3,112
2010-10-29 17:15:26,19.6,5.3,14.3,31.8,4.7,111
2010-10-29 17:20:26,19.5,5.8,13.8,31.6,4.3,112
2010-10-29 17:25:26,19.5,6.2,13.3,31.3,4.3,111
2010-10-29 17:30:26,19.5,5.4,14.2,31.0,10.8,112
2010-10-29 17:35:26,19.5,5.0,14.5,30.6,9.2,111
2010-10-29 17:40:26,19.3,6.1,13.2,30.1,6.1,112
2010-10-29 17:45:26,19.3,5.9,13.4,29.0,5.0,111
2010-10-29 17:50:26,19.3,7.4,11.9,26.5,5.0,112
2010-10-29 17:55:26,19.3,6.8,12.6,23.8,7.5,111
2010-10-29 18:00:26,19.3,7.9,11.4,18.3,7.0,111
2010-10-29 18:05:26,19.3,8.1,11.1,13.4,6.3,112
2010-10-29 18:10:26,19.3,7.5,11.7,7.8,5.1,111
2010-10-29 18:15:26,19.3,8.2,11.1,4.3,4.7,112
2010-10-29 18:20:26,19.3,8.5,10.8,1.7,5.4,111
2010-10-29 18:25:26,19.3,8.3,11.0,1.1,4.7,112
2010-10-29 18:30:26,19.4,8.1,11.3,0.4,10.6,111
2010-10-29 18:35:26,19.4,14.0,5.4,0.1,29.4,112
2010-10-29 18:40:26,19.4,9.5,9.9,0.0,28.8,111
2010-10-29 18:45:26,19.0,7.5,11.5,0.1,27.4,112
2010-10-29 18:50:26,18.8,9.1,9.7,0.1,27.9,111
2010-10-29 18:55:26,18.9,10.9,8.0,0.1,23.9,111
2010-10-29 19:00:26,18.9,9.4,9.4,0.0,15.0,112
2010-10-29 19:05:26,18.6,7.4,11.2,0.1,11.1,111
2010-10-29 19:10:26,18.5,9.5,9.0,0.1,9.6,112
2010-10-29 19:15:26,18.5,11.2,7.2,0.0,7.8,111
2010-10-29 19:20:26,18.4,10.7,7.7,0.1,18.0,111
2010-10-29 19:25:26,18.5,10.0,8.5,0.0,22.1,112
2010-10-29 19:30:26,18.6,11.4,7.2,0.0,19.3,111
2010-10-29 19:35:26,18.6,10.6,8.0,0.0,19.8,112
2010-10-29 19:40:26,18.6,11.1,7.5,0.1,21.2,111
2010-10-29 19:45:26,18.8,10.8,8.0,0.1,22.3,111
2010-10-29 19:50:26,18.8,11.1,7.7,0.1,14.4,112
2010-10-29 19:55:26,18.6,10.3,8.3,0.1,13.7,111
2010-10-29 20:00:26,18.4,11.3,7.1,0.1,15.9,112
2010-10-29 20:05:26,18.4,11.0,7.4,0.1,14.0,111
2010-10-29 20:10:26,18.3,11.2,7.2,0.1,12.8,112
2010-10-29 20:15:26,18.3,11.1,7.2,0.1,11.5,111
2010-10-29 20:20:26,18.2,11.2,7.0,0.1,3.4,111
2010-10-29 20:25:26,18.1,10.4,7.7,0.1,2.5,111
2010-10-29 20:30:26,18.0,5.6,12.4,0.0,5.0,111
2010-10-29 20:35:26,18.0,7.0,11.0,0.0,4.7,112
2010-10-29 20:40:26,18.3,7.8,10.5,0.0,2.6,112
2010-10-29 20:45:26,18.0,7.5,10.5,0.0,2.0,112
2010-10-29 20:50:26,18.1,7.7,10.3,0.0,2.1,111
2010-10-29 20:55:26,18.1,6.9,11.2,0.0,2.2,112
2010-10-29 21:00:26,18.1,4.8,13.3,0.1,2.2,111
2010-10-29 21:05:26,18.2,5.1,13.0,0.1,2.2,112
2010-10-29 21:10:03,18.2,4.9,13.2,0.1,2.2,30
2010-10-29 21:20:04,18.1,3.8,14.4,0.1,2.4,104
2010-10-29 21:25:04,18.1,4.0,14.1,0.1,2.2,112
2010-10-29 21:30:04,18.1,4.2,13.9,0.1,2.3,112
2010-10-29 21:35:04,18.1,3.4,14.7,0.1,2.2,111
2010-10-29 21:40:04,18.1,3.2,14.9,0.1,2.2,111
2010-10-29 21:45:04,18.1,3.2,14.9,0.1,2.2,112
2010-10-29 21:50:04,18.2,2.6,15.5,0.1,2.2,111
2010-10-29 21:55:04,18.1,2.0,16.2,0.1,2.2,111
2010-10-29 22:00:04,18.1,1.4,16.7,0.1,2.2,111
2010-10-29 22:05:04,18.1,1.7,16.4,0.1,2.2,111
2010-10-29 22:10:04,18.1,2.4,15.7,0.1,2.2,111
2010-10-29 22:15:04,18.1,2.5,15.6,0.1,2.2,111
2010-10-29 22:20:04,18.1,2.6,15.5,0.1,2.2,112
2010-10-29 22:25:04,18.1,2.0,16.1,0.1,2.2,111
2010-10-29 22:30:04,18.0,1.8,16.2,0.1,2.1,110
2010-10-29 22:35:04,18.0,0.7,17.3,0.1,2.1,112
2010-10-29 22:40:04,18.0,0.5,17.4,0.1,2.1,111
2010-10-29 22:45:04,17.9,0.5,17.4,0.1,2.1,111
2010-10-29 22:50:04,17.9,1.6,16.3,0.1,2.1,111
2010-10-29 22:55:04,18.0,2.3,15.6,0.1,2.1,111
2010-10-29 23:00:04,18.0,1.3,16.7,0.1,2.0,111
2010-10-29 23:05:04,18.0,1.3,16.6,0.1,2.1,111
2010-10-29 23:10:04,17.9,2.4,15.5,0.1,2.0,111
2010-10-29 23:15:04,17.9,3.9,14.0,0.1,2.0,112
2010-10-29 23:20:04,18.0,4.5,13.5,0.0,2.0,111
2010-10-29 23:25:04,18.0,4.0,14.0,0.1,2.0,112
2010-10-29 23:30:04,18.0,5.0,13.0,0.0,2.0,111
2010-10-29 23:35:04,18.0,4.3,13.7,0.0,2.0,112
2010-10-29 23:40:04,18.0,5.7,12.3,0.0,2.0,111
2010-10-29 23:45:04,18.1,5.7,12.3,0.0,2.0,112
2010-10-29 23:50:04,18.1,5.4,12.7,0.0,2.0,112
2010-10-29 23:55:04,18.1,6.7,11.4,0.0,2.4,111
